sat.trackr.live / text

‹ back to catalog

UNKNOWN

NORAD 81833

UNKNOWN UNKNOWN UNKNOWN

§ Identity

Operator
Country
Launch date
Launch site
Launch vehicle
Mass (kg)
RCS (m²)

External: N2YO · Heavens-Above

§ Orbital elements

Epoch: 2026-05-24T01:30:00.050976Z

Period
111.30 min
Inclination
90.2432°
Eccentricity
0.0026050
Mean motion
12.93796414 rev/d
Perigee alt
1,266.5 km
Apogee alt
1,306.5 km
Semi-major
7,664.6 km
B*
6.9638e-4
RAAN
6.5108°
Arg perigee
324.8646°
Mean anomaly
35.0754°
Rev number
47,350

§ Raw data

UNKNOWN1 81833U          26144.06250059  .00000199  00000+0  69638-3 0  99902 81833  90.2432   6.5108 0026050 324.8646  35.0754 12.93796414473500

JSON: /api/v1/satellites/81833 · /tle

For live sub-satellite position, see the globe view (requires WebGL).

§ Visibility from observer

Set your observer location to see the next 7 days of passes ≥ 10°. The values pass through the URL so the page stays shareable.

No JS? Fill the form by hand. The geolocation button needs JavaScript.